When you browse on this site, cookies collect data to enhance your experience and personalize the content and advertising you see.
Visit our Privacy Policy to learn more. By continuing to use the site, you agree to this use of cookies and data.
  • In Latvia
  • List of Countries
  • For 7 days
  • Water Temperature
  • Satellite Maps
  • Weather Map
  • Weather Widgets
  • user-avatar
    Login

    Hourly Weather Klagenfurt

    Today, 17 June, Monday

    Time Temperature Precipitation Wind Pressure Humidity
    00:00 +14°C° 0 mm 1 mps 692 mmHg 96%
    01:00 +14°C° 0 mm 1 mps 692 mmHg 97%
    02:00 +14°C° 0.1 mm 1 mps 692 mmHg 97%
    03:00 +14°C° 0.1 mm 1 mps 692 mmHg 96%
    04:00 +13°C° 0.1 mm 1 mps 691 mmHg 96%
    05:00 +15°C° 0 mm 1 mps 692 mmHg 94%
    06:00 +16°C° 0 mm 1 mps 692 mmHg 92%
    07:00 +18°C° 0 mm 1 mps 693 mmHg 90%
    08:00 +20°C° 0 mm 1 mps 693 mmHg 79%
    09:00 +22°C° 0 mm 1 mps 693 mmHg 68%
    10:00 +24°C° 0 mm 1 mps 693 mmHg 56%
    11:00 +24°C° 0.5 mm 1 mps 693 mmHg 59%
    12:00 +24°C° 0.5 mm 1 mps 693 mmHg 62%
    13:00 +24°C° 0 mm 2 mps 693 mmHg 64%
    14:00 +23°C° 0.8 mm 1 mps 693 mmHg 68%
    15:00 +23°C° 0.8 mm 1 mps 692 mmHg 72%
    16:00 +22°C° 0.8 mm 1 mps 692 mmHg 75%
    17:00 +21°C° 0.3 mm 1 mps 692 mmHg 80%
    18:00 +20°C° 0.3 mm 1 mps 692 mmHg 84%
    19:00 +19°C° 0.3 mm 1 mps 691 mmHg 88%
    20:00 +18°C° 0.1 mm 1 mps 691 mmHg 90%
    21:00 +16°C° 0.1 mm 1 mps 691 mmHg 92%
    22:00 +14°C° 0.1 mm 0 mps 691 mmHg 94%
    23:00 +15°C° 0 mm 1 mps 691 mmHg 94%

    Tomorrow, 18 June, Tuesday

    Time Temperature Precipitation Wind Pressure Humidity
    00:00 +14°C° 0 mm 1 mps 691 mmHg 94%
    01:00 +14°C° 0 mm 1 mps 691 mmHg 94%
    02:00 +14°C° 0 mm 1 mps 691 mmHg 95%
    03:00 +13°C° 0 mm 1 mps 690 mmHg 95%
    04:00 +13°C° 0 mm 1 mps 690 mmHg 96%
    05:00 +15°C° 0 mm 1 mps 691 mmHg 92%
    06:00 +15°C° 0 mm 0 mps 691 mmHg 89%
    07:00 +17°C° 0 mm 0 mps 692 mmHg 86%
    08:00 +20°C° 0.1 mm 1 mps 692 mmHg 78%
    09:00 +22°C° 0.1 mm 1 mps 692 mmHg 69%
    10:00 +24°C° 0.1 mm 1 mps 692 mmHg 61%
    11:00 +24°C° 0.6 mm 1 mps 692 mmHg 64%
    12:00 +24°C° 0.6 mm 1 mps 692 mmHg 66%
    13:00 +24°C° 0.6 mm 1 mps 691 mmHg 69%
    14:00 +24°C° 0.4 mm 1 mps 691 mmHg 69%
    15:00 +24°C° 0.4 mm 1 mps 691 mmHg 69%
    16:00 +24°C° 0.4 mm 1 mps 691 mmHg 69%
    17:00 +23°C° 0.2 mm 1 mps 690 mmHg 76%
    18:00 +21°C° 0.2 mm 1 mps 690 mmHg 82%
    19:00 +18°C° 0.2 mm 0 mps 690 mmHg 88%
    20:00 +17°C° 0.3 mm 0 mps 690 mmHg 90%
    21:00 +16°C° 0.3 mm 0 mps 690 mmHg 92%
    22:00 +15°C° 0.3 mm 1 mps 690 mmHg 94%
    23:00 +14°C° 0.1 mm 0 mps 689 mmHg 94%

    Day after tomorrow, 19 June, Wednesday

    Time Temperature Precipitation Wind Pressure Humidity
    00:00 +14°C° 0.1 mm 0 mps 689 mmHg 94%
    01:00 +14°C° 0.1 mm 0 mps 689 mmHg 93%
    02:00 +13°C° 0 mm 0 mps 689 mmHg 94%
    03:00 +13°C° 0 mm 0 mps 689 mmHg 94%
    04:00 +13°C° 0 mm 0 mps 689 mmHg 94%
    05:00 +15°C° 0 mm 0 mps 689 mmHg 91%
    06:00 +16°C° 0 mm 0 mps 689 mmHg 87%
    07:00 +18°C° 0 mm 0 mps 690 mmHg 84%
    08:00 +20°C° 0.2 mm 0 mps 690 mmHg 76%
    09:00 +22°C° 0.2 mm 0 mps 690 mmHg 69%
    10:00 +26°C° 0.2 mm 1 mps 690 mmHg 61%
    11:00 +26°C° 1 mm 1 mps 690 mmHg 61%
    12:00 +26°C° 1 mm 1 mps 690 mmHg 61%
    13:00 +26°C° 1 mm 1 mps 690 mmHg 61%
    14:00 +27°C° 0.3 mm 1 mps 689 mmHg 58%
    15:00 +27°C° 0.3 mm 1 mps 689 mmHg 54%
    16:00 +27°C° 0.3 mm 1 mps 689 mmHg 50%
    17:00 +25°C° 0.4 mm 1 mps 689 mmHg 62%
    18:00 +23°C° 0.4 mm 1 mps 689 mmHg 74%
    19:00 +22°C° 0.4 mm 1 mps 688 mmHg 86%
    20:00 +20°C° 1.1 mm 1 mps 689 mmHg 88%
    21:00 +19°C° 1.1 mm 1 mps 689 mmHg 90%
    22:00 +16°C° 1.1 mm 1 mps 689 mmHg 92%
    23:00 +16°C° 0.2 mm 1 mps 688 mmHg 92%

    20 June, Thursday

    Time Temperature Precipitation Wind Pressure Humidity
    00:00 +15°C° 0.2 mm 1 mps 688 mmHg 92%
    01:00 +15°C° 0.2 mm 1 mps 688 mmHg 92%
    02:00 +15°C° 0.1 mm 1 mps 688 mmHg 92%
    03:00 +14°C° 0.1 mm 1 mps 688 mmHg 92%
    04:00 +14°C° 0.1 mm 1 mps 688 mmHg 92%
    05:00 +15°C° 0 mm 0 mps 688 mmHg 89%
    06:00 +16°C° 0 mm 0 mps 689 mmHg 86%
    07:00 +18°C° 0 mm 0 mps 689 mmHg 83%
    08:00 +19°C° 0.5 mm 0 mps 689 mmHg 80%
    09:00 +21°C° 0.5 mm 0 mps 689 mmHg 76%
    10:00 +23°C° 0.5 mm 0 mps 690 mmHg 72%
    11:00 +25°C° 0.9 mm 1 mps 690 mmHg 68%
    12:00 +26°C° 0.9 mm 1 mps 689 mmHg 64%
    13:00 +27°C° 0.9 mm 1 mps 689 mmHg 60%
    14:00 +26°C° 0.4 mm 1 mps 689 mmHg 61%
    15:00 +26°C° 0.4 mm 1 mps 688 mmHg 62%
    16:00 +25°C° 0.4 mm 2 mps 688 mmHg 64%
    17:00 +24°C° 0.1 mm 2 mps 688 mmHg 71%
    18:00 +23°C° 0.1 mm 1 mps 688 mmHg 78%
    19:00 +21°C° 0.1 mm 1 mps 687 mmHg 85%
    20:00 +20°C° 0 mm 1 mps 687 mmHg 88%
    21:00 +18°C° 0 mm 1 mps 688 mmHg 91%
    22:00 +16°C° 0 mm 1 mps 688 mmHg 94%
    23:00 +15°C° 0 mm 1 mps 688 mmHg 92%

    21 June, Friday

    Time Temperature Precipitation Wind Pressure Humidity
    00:00 +15°C° 0 mm 1 mps 688 mmHg 91%
    01:00 +14°C° 0 mm 1 mps 688 mmHg 89%
    02:00 +14°C° 0 mm 1 mps 688 mmHg 89%
    03:00 +14°C° 0 mm 1 mps 688 mmHg 89%
    04:00 +14°C° 0 mm 1 mps 688 mmHg 89%
    05:00 +16°C° 0 mm 1 mps 689 mmHg 85%
    06:00 +18°C° 0 mm 1 mps 690 mmHg 81%
    07:00 +18°C° 0 mm 0 mps 690 mmHg 77%
    08:00 +21°C° 0.4 mm 1 mps 690 mmHg 75%
    09:00 +23°C° 0.4 mm 1 mps 691 mmHg 72%
    10:00 +24°C° 0.4 mm 1 mps 691 mmHg 70%
    11:00 +24°C° 0.9 mm 1 mps 691 mmHg 70%
    12:00 +24°C° 0.9 mm 1 mps 691 mmHg 71%
    13:00 +25°C° 0.9 mm 1 mps 691 mmHg 71%
    14:00 +25°C° 0.8 mm 1 mps 691 mmHg 70%
    15:00 +25°C° 0.8 mm 1 mps 690 mmHg 68%
    16:00 +25°C° 0.8 mm 1 mps 690 mmHg 66%
    17:00 +24°C° 0.2 mm 1 mps 690 mmHg 72%
    18:00 +22°C° 0.2 mm 1 mps 690 mmHg 77%
    19:00 +21°C° 0.2 mm 1 mps 690 mmHg 83%
    20:00 +20°C° 0.1 mm 1 mps 690 mmHg 83%
    21:00 +18°C° 0.1 mm 1 mps 690 mmHg 84%
    22:00 +16°C° 0.1 mm 1 mps 690 mmHg 85%
    23:00 +15°C° 0 mm 1 mps 690 mmHg 85%

    22 June, Saturday

    Time Temperature Precipitation Wind Pressure Humidity
    00:00 +15°C° 0 mm 1 mps 689 mmHg 85%
    01:00 +14°C° 0 mm 1 mps 689 mmHg 85%
    02:00 +14°C° 0 mm 1 mps 689 mmHg 84%
    03:00 +14°C° 0 mm 1 mps 689 mmHg 84%
    04:00 +12°C° 0 mm 0 mps 689 mmHg 83%
    05:00 +14°C° 0 mm 0 mps 689 mmHg 79%
    06:00 +16°C° 0 mm 0 mps 690 mmHg 75%
    07:00 +18°C° 0 mm 0 mps 690 mmHg 72%
    08:00 +20°C° 0 mm 0 mps 691 mmHg 65%
    09:00 +23°C° 0 mm 1 mps 691 mmHg 59%
    10:00 +25°C° 0 mm 1 mps 691 mmHg 53%
    11:00 +26°C° 0.3 mm 1 mps 691 mmHg 53%
    12:00 +26°C° 0.3 mm 1 mps 691 mmHg 53%
    13:00 +27°C° 0.3 mm 2 mps 691 mmHg 53%
    14:00 +26°C° 0.3 mm 2 mps 691 mmHg 54%
    15:00 +26°C° 0.3 mm 2 mps 691 mmHg 56%
    16:00 +26°C° 0.3 mm 2 mps 690 mmHg 57%
    17:00 +24°C° 0.2 mm 1 mps 690 mmHg 65%
    18:00 +22°C° 0.2 mm 1 mps 690 mmHg 73%
    19:00 +19°C° 0.2 mm 0 mps 690 mmHg 82%
    20:00 +17°C° 0 mm 0 mps 690 mmHg 83%
    21:00 +16°C° 0 mm 0 mps 690 mmHg 85%
    22:00 +16°C° 0 mm 1 mps 691 mmHg 87%
    23:00 +15°C° 0 mm 0 mps 691 mmHg 88%
    Show more